When you browse on this site, cookies collect data to enhance your experience and personalize the content and advertising you see.
Visit our Privacy Policy to learn more. By continuing to use the site, you agree to this use of cookies and data.
  • In Czech Republic
  • List of Countries
  • For 7 days
  • Water Temperature
  • Weather Map
  • Weather Widgets
  • user-avatar
    Login

    Hourly Weather Andora

    Today, 9 December, Monday

    Time Temperature Precipitation Wind Pressure Humidity
    00:00 +1°C° 0 mm 2 mps 624 mmHg 87%
    01:00 +1°C° 0 mm 2 mps 624 mmHg 76%
    02:00 -1°C° 0 mm 2 mps 623 mmHg 64%
    03:00 -2°C° 0 mm 2 mps 623 mmHg 52%
    04:00 -2°C° 0 mm 2 mps 623 mmHg 54%
    05:00 -2°C° 0 mm 2 mps 623 mmHg 56%
    06:00 -2°C° 0 mm 2 mps 623 mmHg 59%
    07:00 -2°C° 0.1 mm 3 mps 623 mmHg 64%
    08:00 -1°C° 0.1 mm 3 mps 624 mmHg 70%
    09:00 0°C° 0.1 mm 3 mps 624 mmHg 75%
    10:00 0°C° 0.7 mm 3 mps 624 mmHg 75%
    11:00 0°C° 0.7 mm 4 mps 624 mmHg 75%
    12:00 0°C° 0.7 mm 4 mps 625 mmHg 75%
    13:00 0°C° 0.7 mm 4 mps 624 mmHg 76%
    14:00 -1°C° 0.7 mm 4 mps 624 mmHg 77%
    15:00 -1°C° 0.7 mm 4 mps 624 mmHg 78%
    16:00 -2°C° 1.1 mm 4 mps 624 mmHg 83%
    17:00 -3°C° 1.1 mm 4 mps 624 mmHg 89%
    18:00 -3°C° 1.1 mm 4 mps 624 mmHg 94%
    19:00 -4°C° 0.8 mm 4 mps 624 mmHg 93%
    20:00 -4°C° 0.8 mm 4 mps 625 mmHg 92%
    21:00 -4°C° 0.8 mm 4 mps 625 mmHg 90%
    22:00 -4°C° 0.3 mm 4 mps 625 mmHg 89%
    23:00 -5°C° 0.3 mm 4 mps 625 mmHg 87%

    Tomorrow, 10 December, Tuesday

    Time Temperature Precipitation Wind Pressure Humidity
    00:00 -6°C° 0.3 mm 5 mps 626 mmHg 85%
    01:00 -6°C° 0 mm 5 mps 625 mmHg 83%
    02:00 -5°C° 0 mm 4 mps 625 mmHg 81%
    03:00 -7°C° 0 mm 4 mps 625 mmHg 79%
    04:00 -7°C° 0 mm 4 mps 625 mmHg 72%
    05:00 -7°C° 0 mm 4 mps 625 mmHg 66%
    06:00 -7°C° 0 mm 4 mps 625 mmHg 59%
    07:00 -4°C° 0 mm 3 mps 625 mmHg 56%
    08:00 -2°C° 0 mm 3 mps 626 mmHg 52%
    09:00 -1°C° 0 mm 3 mps 627 mmHg 49%
    10:00 +1°C° 0 mm 3 mps 627 mmHg 51%
    11:00 +4°C° 0 mm 2 mps 627 mmHg 53%
    12:00 +5°C° 0 mm 2 mps 628 mmHg 55%
    13:00 +6°C° 0 mm 1 mps 627 mmHg 57%
    14:00 +5°C° 0 mm 1 mps 627 mmHg 60%
    15:00 +5°C° 0 mm 1 mps 626 mmHg 62%
    16:00 +3°C° 0 mm 1 mps 625 mmHg 57%
    17:00 +1°C° 0 mm 2 mps 625 mmHg 52%
    18:00 -1°C° 0 mm 2 mps 624 mmHg 47%
    19:00 -1°C° 0 mm 2 mps 624 mmHg 46%
    20:00 -1°C° 0 mm 2 mps 624 mmHg 44%
    21:00 -1°C° 0 mm 2 mps 624 mmHg 43%
    22:00 -1°C° 0 mm 2 mps 624 mmHg 42%
    23:00 -1°C° 0 mm 2 mps 623 mmHg 42%

    Day after tomorrow, 11 December, Wednesday

    Time Temperature Precipitation Wind Pressure Humidity
    00:00 -1°C° 0 mm 2 mps 623 mmHg 42%
    01:00 -1°C° 0 mm 2 mps 623 mmHg 43%
    02:00 -1°C° 0 mm 2 mps 622 mmHg 44%
    03:00 +1°C° 0 mm 1 mps 622 mmHg 45%
    04:00 -1°C° 0 mm 2 mps 622 mmHg 46%
    05:00 -1°C° 0 mm 2 mps 621 mmHg 48%
    06:00 -1°C° 0 mm 2 mps 621 mmHg 49%
    07:00 +2°C° 0 mm 1 mps 622 mmHg 54%
    08:00 +3°C° 0 mm 1 mps 622 mmHg 59%
    09:00 +4°C° 0 mm 1 mps 623 mmHg 64%
    10:00 +4°C° 0 mm 1 mps 623 mmHg 65%
    11:00 +5°C° 0 mm 1 mps 623 mmHg 66%
    12:00 +6°C° 0 mm 1 mps 623 mmHg 66%
    13:00 +4°C° 0.2 mm 2 mps 623 mmHg 72%
    14:00 +3°C° 0.2 mm 2 mps 623 mmHg 77%
    15:00 +1°C° 0.2 mm 3 mps 622 mmHg 83%
    16:00 0°C° 0.1 mm 3 mps 622 mmHg 86%
    17:00 -2°C° 0.1 mm 3 mps 622 mmHg 89%
    18:00 -4°C° 0.1 mm 3 mps 622 mmHg 92%
    19:00 -5°C° 0 mm 3 mps 621 mmHg 90%
    20:00 -6°C° 0 mm 3 mps 621 mmHg 88%
    21:00 -7°C° 0 mm 3 mps 621 mmHg 86%
    22:00 -6°C° 0 mm 2 mps 621 mmHg 83%
    23:00 -6°C° 0 mm 2 mps 621 mmHg 81%

    12 December, Thursday

    Time Temperature Precipitation Wind Pressure Humidity
    00:00 -6°C° 0 mm 2 mps 621 mmHg 79%
    01:00 -5°C° 0.2 mm 2 mps 621 mmHg 82%
    02:00 -5°C° 0.2 mm 2 mps 621 mmHg 84%
    03:00 -4°C° 0.2 mm 2 mps 621 mmHg 87%
    04:00 -4°C° 0.3 mm 2 mps 621 mmHg 88%
    05:00 -4°C° 0.3 mm 2 mps 621 mmHg 89%
    06:00 -4°C° 0.3 mm 2 mps 621 mmHg 89%
    07:00 -3°C° 0.3 mm 2 mps 622 mmHg 87%
    08:00 -1°C° 0.3 mm 1 mps 622 mmHg 84%
    09:00 0°C° 0.3 mm 1 mps 623 mmHg 81%
    10:00 +1°C° 0.1 mm 1 mps 623 mmHg 78%
    11:00 +2°C° 0.1 mm 1 mps 623 mmHg 75%
    12:00 +3°C° 0.1 mm 1 mps 623 mmHg 71%
    13:00 +3°C° 0 mm 1 mps 623 mmHg 74%
    14:00 +2°C° 0 mm 1 mps 622 mmHg 76%
    15:00 +2°C° 0 mm 1 mps 622 mmHg 79%
    16:00 +1°C° 0 mm 1 mps 621 mmHg 83%
    17:00 0°C° 0 mm 1 mps 621 mmHg 86%
    18:00 -2°C° 0 mm 1 mps 620 mmHg 90%
    19:00 -1°C° 0 mm 1 mps 620 mmHg 89%
    20:00 -1°C° 0 mm 1 mps 620 mmHg 87%
    21:00 -1°C° 0 mm 1 mps 620 mmHg 86%
    22:00 0°C° 0.4 mm 1 mps 620 mmHg 88%
    23:00 0°C° 0.4 mm 1 mps 620 mmHg 90%

    13 December, Friday

    Time Temperature Precipitation Wind Pressure Humidity
    00:00 +1°C° 0.4 mm 1 mps 620 mmHg 92%
    01:00 +1°C° 0.9 mm 1 mps 620 mmHg 93%
    02:00 +2°C° 0.9 mm 1 mps 620 mmHg 94%
    03:00 +3°C° 0.9 mm 1 mps 620 mmHg 95%
    04:00 +3°C° 0.8 mm 1 mps 620 mmHg 95%
    05:00 +2°C° 0.8 mm 2 mps 620 mmHg 95%
    06:00 +3°C° 0.8 mm 2 mps 620 mmHg 96%
    07:00 +3°C° 0.5 mm 2 mps 620 mmHg 95%
    08:00 +3°C° 0.5 mm 2 mps 620 mmHg 94%
    09:00 +4°C° 0.5 mm 2 mps 621 mmHg 94%
    10:00 +4°C° 0.2 mm 2 mps 621 mmHg 93%
    11:00 +4°C° 0.2 mm 2 mps 621 mmHg 92%
    12:00 +5°C° 0.2 mm 2 mps 621 mmHg 92%
    13:00 +5°C° 0 mm 2 mps 621 mmHg 92%
    14:00 +4°C° 0 mm 2 mps 621 mmHg 93%
    15:00 +4°C° 0 mm 2 mps 621 mmHg 93%
    16:00 +3°C° 0 mm 2 mps 621 mmHg 93%
    17:00 +2°C° 0 mm 2 mps 621 mmHg 93%
    18:00 0°C° 0 mm 3 mps 621 mmHg 93%
    19:00 0°C° 0 mm 3 mps 621 mmHg 93%
    20:00 0°C° 0 mm 3 mps 621 mmHg 93%
    21:00 0°C° 0 mm 3 mps 621 mmHg 92%
    22:00 -1°C° 0 mm 3 mps 621 mmHg 91%
    23:00 -1°C° 0 mm 2 mps 621 mmHg 91%

    14 December, Saturday

    Time Temperature Precipitation Wind Pressure Humidity
    00:00 -1°C° 0 mm 2 mps 621 mmHg 90%
    01:00 -1°C° 0 mm 2 mps 621 mmHg 86%
    02:00 -1°C° 0 mm 2 mps 621 mmHg 83%
    03:00 -1°C° 0 mm 2 mps 621 mmHg 79%
    04:00 -1°C° 0 mm 2 mps 621 mmHg 77%
    05:00 -1°C° 0 mm 2 mps 622 mmHg 74%
    06:00 -1°C° 0 mm 2 mps 622 mmHg 72%
    07:00 +1°C° 0 mm 2 mps 623 mmHg 70%
    08:00 +3°C° 0 mm 1 mps 623 mmHg 68%
    09:00 +5°C° 0 mm 1 mps 624 mmHg 66%
    10:00 +5°C° 0 mm 0 mps 625 mmHg 66%
    11:00 +6°C° 0 mm 0 mps 625 mmHg 66%
    12:00 +7°C° 0 mm 0 mps 625 mmHg 67%
    13:00 +7°C° 0 mm 0 mps 625 mmHg 69%
    14:00 +6°C° 0 mm 0 mps 625 mmHg 72%
    15:00 +6°C° 0 mm 0 mps 624 mmHg 74%
    16:00 +4°C° 0 mm 0 mps 624 mmHg 72%
    17:00 +4°C° 0 mm 1 mps 623 mmHg 71%
    18:00 +3°C° 0 mm 1 mps 623 mmHg 69%
    19:00 +2°C° 0 mm 1 mps 623 mmHg 67%
    20:00 +2°C° 0 mm 1 mps 623 mmHg 66%
    21:00 +2°C° 0 mm 1 mps 623 mmHg 64%
    22:00 +2°C° 0 mm 1 mps 623 mmHg 60%
    23:00 +2°C° 0 mm 1 mps 623 mmHg 56%
    Show more